Location: Utrecht
(52.0917°N, 5.1178°E)
Time: 00:13:36
(UTC+02:00)

X-37B - Pass Details

Date: 26 June 2021
Orbit: 383 x 392 km, 45.0° (Epoch: 01 July)

Event Time Altitude Azimuth Distance (km) Brightness Sun altitude
Rises 22:47:35 0° 235° (SW) 2,253 4.5 -5.5°
Reaches altitude 10° 22:49:59 10° 217° (SW) 1,401 3.3 -5.7°
Maximum altitude 22:52:20 19° 168° (SSE) 977 2.1 -5.9°
Drops below altitude 10° 22:54:41 10° 120° (ESE) 1,402 2.8 -6.1°
Enters shadow 22:55:54 - 109° (ESE) 1,808 3.5 -6.3°
